Weather in Krasivoye

Russia / Tambov Oblast     53°02′36″N   40°35′55″E
temp.,
°C
wind,
m/s
gust,
m/s
humid.,
%
clouds,
%
prec.,
mm/h
press.,
hPa
HPBL,
m
7 march, sun
sun700:00−11w47910 0.0 1017124
03:00−12w47936 0.0 1017118
06:00−12sw479520 0.0 1016138
09:00−8sw7138948 0.0 1013512
12:00−4sw91581100 0.0 1009988
15:00−3sw111980100 0.1 10041139
18:00−3wsw101794100 1.3 10001106
21:00−1wsw101889100 1.9 9981096
8 march, mon
mon800:00−3w61482100 1.8 999706
03:00−7wsw5118484 1.8 1001246
06:00−8sw410872 0.0 1001185
09:00−5wsw6128533 0.0 1001708
12:00−3w8127791 0.1 10021442
15:00−4wnw8117894 0.2 10041297
18:00−8wnw358667 0.1 100797
21:00−11wnw338833 0.1 100923
9 march, tue
tue900:00−13w22910 0.0 101021
03:00−13nw22920 0.0 101120
06:00−13nnw239578 0.0 101129
09:00−11nnw469488 0.1 1013313
12:00−11nnw469094 0.1 1014427
15:00−10nw578892 0.1 1015613
18:00−13nw4991100 0.1 1017341
21:00−16nw499481 0.1 1020186
10 march, wed
wed1000:00−18nw479622 0.0 1021140
03:00−19nw359954 0.0 102384
06:00−21nw349879 0.0 102490
09:00−20nnw469455 0.0 1026244
12:00−18nnw4590100 0.0 1026347
15:00−16nnw358699 0.0 1026423
18:00−19nnw239389 0.0 102750
21:00−22n339451 0.0 102828
11 march, thu
thu1100:00−23nne23960 0.0 103024
03:00−24nne22960 0.0 103121
06:00−24nne22950 0.0 103221
09:00−21nne23910 0.0 1033109
12:00−16ne22790 0.0 1033267
15:00−14ne11750 0.0 1033342
18:00−19nne12880 0.0 103320
21:00−21ese01870 0.0 103420